Time,TemperatureF,DewpointF,PressureIn,WindDirection,WindDirectionDegrees,WindSpeedMPH,WindSpeedGustMPH,Humidity,HourlyPrecipIn,Conditions,Clouds,dailyrainin,SoftwareType,DateUTC
2013-08-04 00:01:00,60.1,53.6,29.92,NNE,22,0.0,2.7,79,0.06,,,0.00,WUHU21623XXSP,2013-08-04 04:01:00,
2013-08-04 00:02:00,60.1,54.0,29.92,NE,45,0.0,2.7,80,0.06,,,0.00,WUHU21623XXSP,2013-08-04 04:02:00,
2013-08-04 00:07:00,60.1,54.0,29.92,NE,45,0.0,0.4,80,0.13,,,0.07,WUHU21623XXSP,2013-08-04 04:07:00,
2013-08-04 00:12:00,60.1,54.0,29.92,NE,45,0.0,0.0,80,0.13,,,0.07,WUHU21623XXSP,2013-08-04 04:12:00,
2013-08-04 00:17:00,60.1,54.3,29.91,NE,45,0.0,0.0,81,0.13,,,0.07,WUHU21623XXSP,2013-08-04 04:17:00,
2013-08-04 00:22:00,60.1,54.3,29.92,NE,45,0.0,0.0,81,0.13,,,0.07,WUHU21623XXSP,2013-08-04 04:22:00,
2013-08-04 00:27:00,59.9,54.1,29.91,NE,45,0.0,0.0,81,0.13,,,0.07,WUHU21623XXSP,2013-08-04 04:27:00,
2013-08-04 00:32:00,59.9,54.1,29.91,NE,45,0.0,0.0,81,0.13,,,0.07,WUHU21623XXSP,2013-08-04 04:32:00,
2013-08-04 00:37:00,59.7,53.9,29.91,NE,45,0.0,0.0,81,0.13,,,0.07,WUHU21623XXSP,2013-08-04 04:37:00,
2013-08-04 00:42:00,59.5,53.7,29.91,NE,45,0.0,0.0,81,0.11,,,0.07,WUHU21623XXSP,2013-08-04 04:42:00,
2013-08-04 00:47:00,59.2,53.4,29.91,ESE,112,0.0,0.0,81,0.09,,,0.07,WUHU21623XXSP,2013-08-04 04:47:00,
2013-08-04 00:52:00,58.8,53.0,29.91,ESE,112,0.0,0.0,81,0.09,,,0.07,WUHU21623XXSP,2013-08-04 04:52:00,
2013-08-04 00:57:00,58.6,52.8,29.91,ESE,112,0.0,0.0,81,0.07,,,0.07,WUHU21623XXSP,2013-08-04 04:57:00,
2013-08-04 01:02:00,58.6,52.8,29.91,ESE,112,0.0,0.0,81,0.05,,,0.07,WUHU21623XXSP,2013-08-04 05:02:00,
2013-08-04 01:07:00,58.6,52.8,29.91,ESE,112,0.0,0.0,81,0.00,,,0.07,WUHU21623XXSP,2013-08-04 05:07:00,
2013-08-04 01:12:00,58.6,53.2,29.91,ESE,112,0.0,0.0,82,0.00,,,0.07,WUHU21623XXSP,2013-08-04 05:12:00,
2013-08-04 01:17:00,58.6,53.2,29.91,ESE,112,0.0,0.0,82,0.00,,,0.07,WUHU21623XXSP,2013-08-04 05:17:00,
2013-08-04 01:22:00,58.8,53.4,29.91,ENE,67,0.0,0.0,82,0.00,,,0.07,WUHU21623XXSP,2013-08-04 05:22:00,
2013-08-04 01:27:00,58.8,53.4,29.91,SSE,157,0.0,2.5,82,0.00,,,0.07,WUHU21623XXSP,2013-08-04 05:27:00,
2013-08-04 01:32:00,58.8,53.7,29.91,SE,135,0.0,2.5,83,0.00,,,0.07,WUHU21623XXSP,2013-08-04 05:32:00,
2013-08-04 01:37:00,59.0,53.9,29.91,ESE,112,0.0,0.9,83,0.00,,,0.07,WUHU21623XXSP,2013-08-04 05:37:00,
2013-08-04 01:42:00,59.2,54.1,29.91,South,180,1.1,1.1,83,0.00,,,0.07,WUHU21623XXSP,2013-08-04 05:42:00,
2013-08-04 01:47:00,59.2,54.1,29.91,SSE,157,0.0,1.1,83,0.00,,,0.07,WUHU21623XXSP,2013-08-04 05:47:00,
2013-08-04 01:52:00,59.2,54.1,29.91,SSE,157,0.0,0.0,83,0.00,,,0.07,WUHU21623XXSP,2013-08-04 05:52:00,
2013-08-04 01:57:00,59.2,54.1,29.91,SSE,157,0.0,0.0,83,0.00,,,0.07,WUHU21623XXSP,2013-08-04 05:57:00,
2013-08-04 02:02:00,59.2,54.1,29.91,SE,135,0.0,0.0,83,0.00,,,0.07,WUHU21623XXSP,2013-08-04 06:02:00,
2013-08-04 02:07:00,59.2,54.1,29.91,SE,135,0.0,0.0,83,0.00,,,0.07,WUHU21623XXSP,2013-08-04 06:07:00,
2013-08-04 02:12:00,59.0,53.9,29.91,South,180,1.6,1.6,83,0.00,,,0.07,WUHU21623XXSP,2013-08-04 06:12:00,
2013-08-04 02:17:00,59.0,54.2,29.91,South,180,0.0,1.6,84,0.00,,,0.07,WUHU21623XXSP,2013-08-04 06:17:00,
2013-08-04 02:22:00,59.0,54.2,29.91,South,180,0.0,0.0,84,0.00,,,0.07,WUHU21623XXSP,2013-08-04 06:22:00,
2013-08-04 02:27:00,59.2,54.4,29.91,South,180,0.4,0.4,84,0.00,,,0.07,WUHU21623XXSP,2013-08-04 06:27:00,
2013-08-04 02:32:00,59.2,54.4,29.92,South,180,0.0,0.4,84,0.00,,,0.07,WUHU21623XXSP,2013-08-04 06:32:00,
2013-08-04 02:37:00,59.2,54.4,29.91,ESE,112,0.0,0.0,84,0.00,,,0.07,WUHU21623XXSP,2013-08-04 06:37:00,
2013-08-04 02:42:00,59.5,54.7,29.91,ESE,112,0.0,0.0,84,0.00,,,0.07,WUHU21623XXSP,2013-08-04 06:42:00,
2013-08-04 02:47:00,59.5,54.7,29.91,ESE,112,0.0,0.0,84,0.00,,,0.07,WUHU21623XXSP,2013-08-04 06:47:00,
2013-08-04 02:52:00,59.7,54.9,29.91,ESE,112,0.0,0.0,84,0.00,,,0.07,WUHU21623XXSP,2013-08-04 06:52:00,
2013-08-04 02:57:00,59.9,55.1,29.91,ESE,112,0.0,0.0,84,0.00,,,0.07,WUHU21623XXSP,2013-08-04 06:57:00,
2013-08-04 03:02:00,60.1,55.3,29.91,ESE,112,0.0,0.0,84,0.00,,,0.07,WUHU21623XXSP,2013-08-04 07:02:00,
2013-08-04 03:07:00,60.1,55.3,29.91,ESE,112,0.0,0.0,84,0.00,,,0.07,WUHU21623XXSP,2013-08-04 07:07:00,
2013-08-04 03:12:00,60.1,55.3,29.91,ESE,112,0.0,0.0,84,0.00,,,0.07,WUHU21623XXSP,2013-08-04 07:12:00,
2013-08-04 03:17:00,60.1,55.3,29.91,ESE,112,0.0,0.0,84,0.00,,,0.07,WUHU21623XXSP,2013-08-04 07:17:00,
2013-08-04 03:22:00,60.1,55.3,29.91,ESE,112,0.0,0.0,84,0.00,,,0.07,WUHU21623XXSP,2013-08-04 07:22:00,
2013-08-04 03:27:00,60.1,55.3,29.91,ESE,112,0.0,0.0,84,0.00,,,0.07,WUHU21623XXSP,2013-08-04 07:27:00,
2013-08-04 03:32:00,60.3,55.5,29.91,ESE,112,0.0,0.0,84,0.00,,,0.07,WUHU21623XXSP,2013-08-04 07:32:00,
2013-08-04 03:37:00,60.4,55.6,29.91,SE,135,0.0,0.0,84,0.00,,,0.07,WUHU21623XXSP,2013-08-04 07:37:00,
2013-08-04 03:42:00,60.4,55.6,29.91,SE,135,1.1,1.1,84,0.00,,,0.07,WUHU21623XXSP,2013-08-04 07:42:00,
2013-08-04 03:47:00,60.4,55.6,29.91,ENE,67,0.0,1.1,84,0.00,,,0.07,WUHU21623XXSP,2013-08-04 07:47:00,
2013-08-04 03:52:00,60.4,55.6,29.91,ESE,112,0.0,0.0,84,0.00,,,0.07,WUHU21623XXSP,2013-08-04 07:52:00,
2013-08-04 03:57:00,60.4,55.6,29.91,South,180,0.0,5.1,84,0.00,,,0.07,WUHU21623XXSP,2013-08-04 07:57:00,
2013-08-04 04:02:00,60.1,55.3,29.91,SE,135,0.0,5.1,84,0.00,,,0.07,WUHU21623XXSP,2013-08-04 08:02:00,
2013-08-04 04:07:00,60.1,55.3,29.91,ENE,67,0.0,1.3,84,0.00,,,0.07,WUHU21623XXSP,2013-08-04 08:07:00,
2013-08-04 04:12:00,59.7,54.9,29.91,ENE,67,0.0,0.0,84,0.00,,,0.07,WUHU21623XXSP,2013-08-04 08:12:00,
2013-08-04 04:17:00,59.5,54.7,29.91,NE,45,0.0,0.0,84,0.00,,,0.07,WUHU21623XXSP,2013-08-04 08:17:00,
2013-08-04 04:22:00,59.2,54.4,29.91,ESE,112,0.0,0.0,84,0.00,,,0.07,WUHU21623XXSP,2013-08-04 08:22:00,
2013-08-04 04:27:00,59.0,54.2,29.91,SE,135,2.5,2.5,84,0.00,,,0.07,WUHU21623XXSP,2013-08-04 08:27:00,
2013-08-04 04:32:00,58.8,54.0,29.91,ENE,67,0.0,2.5,84,0.00,,,0.07,WUHU21623XXSP,2013-08-04 08:32:00,
2013-08-04 04:37:00,58.8,54.0,29.91,ENE,67,0.0,0.9,84,0.00,,,0.07,WUHU21623XXSP,2013-08-04 08:37:00,
2013-08-04 04:42:00,58.6,53.8,29.91,ENE,67,0.0,0.0,84,0.00,,,0.07,WUHU21623XXSP,2013-08-04 08:42:00,
2013-08-04 04:47:00,58.5,53.7,29.91,NE,45,0.0,0.0,84,0.00,,,0.07,WUHU21623XXSP,2013-08-04 08:47:00,
2013-08-04 04:52:00,58.3,53.5,29.91,SE,135,0.0,0.0,84,0.00,,,0.07,WUHU21623XXSP,2013-08-04 08:52:00,
2013-08-04 04:57:00,58.3,53.5,29.91,NE,45,0.0,0.0,84,0.00,,,0.07,WUHU21623XXSP,2013-08-04 08:57:00,
2013-08-04 05:02:00,58.1,53.3,29.91,ESE,112,0.0,0.7,84,0.00,,,0.07,WUHU21623XXSP,2013-08-04 09:02:00,
2013-08-04 05:07:00,58.1,53.3,29.91,ESE,112,0.0,0.7,84,0.00,,,0.07,WUHU21623XXSP,2013-08-04 09:07:00,
2013-08-04 05:12:00,58.1,53.3,29.91,ESE,112,0.0,0.0,84,0.00,,,0.07,WUHU21623XXSP,2013-08-04 09:12:00,
2013-08-04 05:17:00,58.1,53.3,29.91,ESE,112,0.0,0.0,84,0.00,,,0.07,WUHU21623XXSP,2013-08-04 09:17:00,
2013-08-04 05:22:00,57.9,53.4,29.91,NNW,337,0.0,0.0,85,0.00,,,0.07,WUHU21623XXSP,2013-08-04 09:22:00,
2013-08-04 05:27:00,57.9,53.4,29.91,ENE,67,1.1,1.1,85,0.00,,,0.07,WUHU21623XXSP,2013-08-04 09:27:00,
2013-08-04 05:32:00,57.9,53.4,29.91,North,0,0.0,1.1,85,0.00,,,0.07,WUHU21623XXSP,2013-08-04 09:32:00,
2013-08-04 05:37:00,57.9,53.4,29.91,NE,45,0.0,0.0,85,0.00,,,0.07,WUHU21623XXSP,2013-08-04 09:37:00,
2013-08-04 05:42:00,57.9,53.4,29.91,ENE,67,0.0,1.3,85,0.00,,,0.07,WUHU21623XXSP,2013-08-04 09:42:00,
2013-08-04 05:47:00,57.9,53.4,29.91,ENE,67,0.0,1.3,85,0.00,,,0.07,WUHU21623XXSP,2013-08-04 09:47:00,
2013-08-04 05:52:00,57.9,53.4,29.91,East,90,0.0,3.1,85,0.00,,,0.07,WUHU21623XXSP,2013-08-04 09:52:00,
2013-08-04 05:57:00,58.1,53.6,29.91,SSE,157,0.0,3.1,85,0.00,,,0.07,WUHU21623XXSP,2013-08-04 09:57:00,
2013-08-04 06:02:00,58.1,53.6,29.91,ENE,67,0.0,1.8,85,0.00,,,0.07,WUHU21623XXSP,2013-08-04 10:02:00,
2013-08-04 06:07:00,58.1,53.6,29.92,ENE,67,0.0,1.8,85,0.00,,,0.07,WUHU21623XXSP,2013-08-04 10:07:00,
2013-08-04 06:12:00,58.3,53.8,29.92,ENE,67,0.0,0.0,85,0.00,,,0.07,WUHU21623XXSP,2013-08-04 10:12:00,
2013-08-04 06:17:00,58.3,53.8,29.92,ENE,67,0.0,0.0,85,0.00,,,0.07,WUHU21623XXSP,2013-08-04 10:17:00,
2013-08-04 06:22:00,58.3,53.8,29.92,ESE,112,0.0,2.9,85,0.00,,,0.07,WUHU21623XXSP,2013-08-04 10:22:00,
2013-08-04 06:27:00,58.3,53.8,29.92,ENE,67,0.0,2.9,85,0.00,,,0.07,WUHU21623XXSP,2013-08-04 10:27:00,
2013-08-04 06:32:00,58.5,54.0,29.92,SE,135,0.0,0.0,85,0.00,,,0.07,WUHU21623XXSP,2013-08-04 10:32:00,
2013-08-04 06:37:00,58.3,53.8,29.92,NE,45,0.0,0.0,85,0.00,,,0.07,WUHU21623XXSP,2013-08-04 10:37:00,
2013-08-04 06:42:00,58.6,54.1,29.92,NE,45,0.0,3.8,85,0.00,,,0.07,WUHU21623XXSP,2013-08-04 10:42:00,
2013-08-04 06:47:00,58.5,54.0,29.92,ENE,58,1.9,3.8,85,0.00,,,0.07,WUHU21623XXSP,2013-08-04 10:47:00,
2013-08-04 06:52:00,58.6,54.1,29.92,East,90,0.0,3.4,85,0.00,,,0.07,WUHU21623XXSP,2013-08-04 10:52:00,
2013-08-04 06:57:00,58.8,54.3,29.92,East,80,1.9,2.2,85,0.00,,,0.07,WUHU21623XXSP,2013-08-04 10:57:00,
2013-08-04 07:02:00,58.8,54.3,29.92,NE,45,0.0,2.2,85,0.00,,,0.07,WUHU21623XXSP,2013-08-04 11:02:00,
2013-08-04 07:07:00,59.2,54.7,29.93,NNE,22,0.0,3.4,85,0.00,,,0.07,WUHU21623XXSP,2013-08-04 11:07:00,
2013-08-04 07:12:00,59.2,54.7,29.93,NNE,22,0.0,3.4,85,0.00,,,0.07,WUHU21623XXSP,2013-08-04 11:12:00,
2013-08-04 07:17:00,59.0,54.5,29.93,North,0,0.0,1.3,85,0.00,,,0.07,WUHU21623XXSP,2013-08-04 11:17:00,
2013-08-04 07:22:00,58.8,54.3,29.93,NE,38,1.0,1.3,85,0.00,,,0.07,WUHU21623XXSP,2013-08-04 11:22:00,
2013-08-04 07:27:00,58.8,54.3,29.93,NE,45,1.7,2.2,85,0.00,,,0.07,WUHU21623XXSP,2013-08-04 11:27:00,
2013-08-04 07:32:00,58.6,54.1,29.93,SSE,157,2.5,2.5,85,0.02,,,0.09,WUHU21623XXSP,2013-08-04 11:32:00,
2013-08-04 07:37:00,58.6,54.1,29.93,ESE,112,0.0,2.5,85,0.02,,,0.09,WUHU21623XXSP,2013-08-04 11:37:00,
2013-08-04 07:42:00,58.5,54.0,29.93,ENE,67,0.0,2.5,85,0.02,,,0.09,WUHU21623XXSP,2013-08-04 11:42:00,
2013-08-04 07:47:00,58.5,54.0,29.93,NNE,23,2.7,5.4,85,0.02,,,0.09,WUHU21623XXSP,2013-08-04 11:47:00,
2013-08-04 07:52:00,58.6,54.1,29.93,ENE,67,0.0,5.4,85,0.02,,,0.09,WUHU21623XXSP,2013-08-04 11:52:00,
2013-08-04 07:57:00,58.6,54.1,29.93,NNW,337,2.9,3.1,85,0.02,,,0.09,WUHU21623XXSP,2013-08-04 11:57:00,
2013-08-04 08:02:00,58.8,54.3,29.93,NE,45,0.0,3.1,85,0.02,,,0.09,WUHU21623XXSP,2013-08-04 12:02:00,
2013-08-04 08:07:00,58.8,54.3,29.93,South,180,2.7,2.7,85,0.02,,,0.09,WUHU21623XXSP,2013-08-04 12:07:00,
2013-08-04 08:12:00,59.2,55.0,29.93,NE,45,0.0,2.7,86,0.02,,,0.09,WUHU21623XXSP,2013-08-04 12:12:00,
2013-08-04 08:17:00,59.4,55.2,29.93,East,84,0.8,2.0,86,0.02,,,0.09,WUHU21623XXSP,2013-08-04 12:17:00,
2013-08-04 08:22:00,59.5,55.3,29.93,NE,45,0.0,1.3,86,0.02,,,0.09,WUHU21623XXSP,2013-08-04 12:22:00,
2013-08-04 08:27:00,59.9,55.7,29.93,ENE,67,1.3,1.3,86,0.02,,,0.09,WUHU21623XXSP,2013-08-04 12:27:00,
2013-08-04 08:32:00,60.1,55.6,29.93,NE,45,0.0,1.3,85,0.02,,,0.09,WUHU21623XXSP,2013-08-04 12:32:00,
2013-08-04 08:37:00,60.4,55.9,29.93,ENE,67,1.5,2.0,85,0.00,,,0.09,WUHU21623XXSP,2013-08-04 12:37:00,
2013-08-04 08:42:00,60.6,56.1,29.93,NNE,22,0.0,2.0,85,0.00,,,0.09,WUHU21623XXSP,2013-08-04 12:42:00,
2013-08-04 08:47:00,60.4,55.9,29.93,WNW,292,0.0,5.6,85,0.00,,,0.09,WUHU21623XXSP,2013-08-04 12:47:00,
2013-08-04 08:52:00,60.4,55.9,29.93,NE,52,3.0,5.6,85,0.00,,,0.09,WUHU21623XXSP,2013-08-04 12:52:00,
2013-08-04 08:57:00,60.6,56.1,29.93,SE,135,1.8,3.8,85,0.00,,,0.09,WUHU21623XXSP,2013-08-04 12:57:00,
2013-08-04 09:02:00,61.0,56.5,29.94,NNW,337,0.0,3.8,85,0.00,,,0.09,WUHU21623XXSP,2013-08-04 13:02:00,
2013-08-04 09:07:00,61.3,56.8,29.94,SSW,200,1.8,3.6,85,0.00,,,0.09,WUHU21623XXSP,2013-08-04 13:07:00,
2013-08-04 09:12:00,61.5,57.0,29.94,SE,135,0.0,3.4,85,0.00,,,0.09,WUHU21623XXSP,2013-08-04 13:12:00,
2013-08-04 09:17:00,61.9,57.4,29.94,NE,45,0.0,0.9,85,0.00,,,0.09,WUHU21623XXSP,2013-08-04 13:17:00,
2013-08-04 09:22:00,62.1,57.2,29.94,ENE,67,1.5,4.3,84,0.00,,,0.09,WUHU21623XXSP,2013-08-04 13:22:00,
2013-08-04 09:27:00,62.2,57.3,29.94,NE,45,0.0,4.3,84,0.00,,,0.09,WUHU21623XXSP,2013-08-04 13:27:00,
2013-08-04 09:32:00,62.4,57.5,29.94,NE,45,0.0,1.3,84,0.00,,,0.09,WUHU21623XXSP,2013-08-04 13:32:00,
2013-08-04 09:37:00,62.8,57.6,29.94,ESE,112,0.0,3.1,83,0.00,,,0.09,WUHU21623XXSP,2013-08-04 13:37:00,
2013-08-04 09:42:00,63.0,58.1,29.94,East,90,0.0,3.1,84,0.00,,,0.09,WUHU21623XXSP,2013-08-04 13:42:00,
2013-08-04 09:47:00,63.1,57.9,29.94,North,9,2.3,2.7,83,0.00,,,0.09,WUHU21623XXSP,2013-08-04 13:47:00,
2013-08-04 09:52:00,63.1,57.9,29.94,ENE,67,0.0,2.7,83,0.00,,,0.09,WUHU21623XXSP,2013-08-04 13:52:00,
2013-08-04 09:57:00,63.3,58.1,29.94,East,90,0.7,0.7,83,0.00,,,0.09,WUHU21623XXSP,2013-08-04 13:57:00,
2013-08-04 10:02:00,63.5,58.0,29.94,NNW,337,0.0,0.9,82,0.00,,,0.09,WUHU21623XXSP,2013-08-04 14:02:00,
2013-08-04 10:07:00,64.2,58.6,29.94,North,0,0.0,0.9,82,0.00,,,0.09,WUHU21623XXSP,2013-08-04 14:07:00,
2013-08-04 10:12:00,64.6,58.7,29.95,NNE,22,0.0,6.5,81,0.00,,,0.09,WUHU21623XXSP,2013-08-04 14:12:00,
2013-08-04 10:17:00,65.1,59.2,29.95,NE,45,0.0,6.5,81,0.00,,,0.09,WUHU21623XXSP,2013-08-04 14:17:00,
2013-08-04 10:22:00,65.8,59.5,29.95,NE,45,1.1,3.4,80,0.00,,,0.09,WUHU21623XXSP,2013-08-04 14:22:00,
2013-08-04 10:27:00,66.0,59.4,29.95,NE,45,2.2,2.2,79,0.00,,,0.09,WUHU21623XXSP,2013-08-04 14:27:00,
2013-08-04 10:32:00,66.0,59.0,29.95,NE,45,0.0,2.2,78,0.00,,,0.09,WUHU21623XXSP,2013-08-04 14:32:00,
2013-08-04 10:37:00,66.0,59.0,29.95,North,0,0.0,2.7,78,0.00,,,0.09,WUHU21623XXSP,2013-08-04 14:37:00,
2013-08-04 10:42:00,66.4,59.1,29.95,NNE,14,2.3,2.9,77,0.00,,,0.09,WUHU21623XXSP,2013-08-04 14:42:00,
2013-08-04 10:47:00,67.8,60.4,29.95,NNE,22,0.0,2.9,77,0.00,,,0.09,WUHU21623XXSP,2013-08-04 14:47:00,
2013-08-04 10:52:00,68.5,60.4,29.95,North,0,0.0,2.9,75,0.00,,,0.09,WUHU21623XXSP,2013-08-04 14:52:00,
2013-08-04 10:57:00,68.5,60.0,29.95,North,0,1.9,2.5,74,0.00,,,0.09,WUHU21623XXSP,2013-08-04 14:57:00,
2013-08-04 11:02:00,69.1,60.2,29.95,NE,45,0.7,2.9,73,0.00,,,0.09,WUHU21623XXSP,2013-08-04 15:02:00,
2013-08-04 11:07:00,69.4,60.5,29.95,SSE,157,1.8,2.9,73,0.00,,,0.09,WUHU21623XXSP,2013-08-04 15:07:00,
2013-08-04 11:12:00,69.6,60.3,29.95,NNE,22,0.0,1.8,72,0.00,,,0.09,WUHU21623XXSP,2013-08-04 15:12:00,
2013-08-04 11:17:00,69.6,59.9,29.96,NNW,348,2.5,4.7,71,0.00,,,0.09,WUHU21623XXSP,2013-08-04 15:17:00,
2013-08-04 11:22:00,70.2,60.5,29.96,North,0,0.0,4.7,71,0.00,,,0.09,WUHU21623XXSP,2013-08-04 15:22:00,
2013-08-04 11:27:00,70.3,60.2,29.96,South,180,0.0,2.9,70,0.00,,,0.09,WUHU21623XXSP,2013-08-04 15:27:00,
2013-08-04 11:32:00,69.4,59.4,29.96,NE,48,2.4,3.1,70,0.00,,,0.09,WUHU21623XXSP,2013-08-04 15:32:00,
2013-08-04 11:37:00,67.6,57.6,29.96,NNE,13,1.1,3.1,70,0.02,,,0.11,WUHU21623XXSP,2013-08-04 15:37:00,
2013-08-04 11:42:00,65.8,56.7,29.96,NNE,22,1.6,2.9,72,0.02,,,0.11,WUHU21623XXSP,2013-08-04 15:42:00,
2013-08-04 11:47:00,66.0,58.0,29.96,NNW,337,1.5,1.8,75,0.02,,,0.11,WUHU21623XXSP,2013-08-04 15:47:00,
2013-08-04 11:52:00,66.9,58.8,29.96,NNE,26,3.3,6.3,75,0.02,,,0.11,WUHU21623XXSP,2013-08-04 15:52:00,
2013-08-04 11:57:00,66.9,58.5,29.96,NE,45,0.7,6.3,74,0.02,,,0.11,WUHU21623XXSP,2013-08-04 15:57:00,
2013-08-04 12:02:00,67.3,58.5,29.96,NNW,343,1.3,4.3,73,0.02,,,0.11,WUHU21623XXSP,2013-08-04 16:02:00,
2013-08-04 12:07:00,67.5,58.7,29.97,NNE,22,1.5,4.3,73,0.02,,,0.11,WUHU21623XXSP,2013-08-04 16:07:00,
2013-08-04 12:12:00,67.6,58.0,29.97,NNE,27,4.2,7.2,71,0.02,,,0.11,WUHU21623XXSP,2013-08-04 16:12:00,
2013-08-04 12:17:00,68.2,58.6,29.96,NNW,337,1.3,7.2,71,0.02,,,0.11,WUHU21623XXSP,2013-08-04 16:17:00,
2013-08-04 12:22:00,68.2,58.6,29.96,North,8,1.6,3.4,71,0.02,,,0.11,WUHU21623XXSP,2013-08-04 16:22:00,
2013-08-04 12:27:00,68.7,58.7,29.96,NW,315,0.0,2.5,70,0.02,,,0.11,WUHU21623XXSP,2013-08-04 16:27:00,
2013-08-04 12:32:00,69.8,59.4,29.96,NE,36,3.2,3.8,69,0.02,,,0.11,WUHU21623XXSP,2013-08-04 16:32:00,
2013-08-04 12:37:00,70.5,59.2,29.96,NE,52,2.5,5.8,67,0.00,,,0.11,WUHU21623XXSP,2013-08-04 16:37:00,
2013-08-04 12:42:00,70.9,58.3,29.96,NNE,15,1.7,5.8,64,0.00,,,0.11,WUHU21623XXSP,2013-08-04 16:42:00,
2013-08-04 12:47:00,71.2,58.2,29.96,NE,45,2.0,2.9,63,0.00,,,0.11,WUHU21623XXSP,2013-08-04 16:47:00,
2013-08-04 12:53:00,71.4,57.4,29.96,NNE,32,1.4,4.9,61,0.00,,,0.11,WUHU21623XXSP,2013-08-04 16:53:00,
2013-08-04 12:58:00,70.7,56.3,29.96,NNE,22,2.7,4.9,60,0.00,,,0.11,WUHU21623XXSP,2013-08-04 16:58:00,
2013-08-04 13:03:00,70.0,55.7,29.96,North,2,1.8,4.3,60,0.00,,,0.11,WUHU21623XXSP,2013-08-04 17:03:00,
2013-08-04 13:08:00,70.3,56.4,29.96,NE,36,3.0,5.6,61,0.00,,,0.11,WUHU21623XXSP,2013-08-04 17:08:00,
2013-08-04 13:12:00,71.1,57.6,29.96,NNE,26,3.3,5.6,62,0.00,,,0.11,WUHU21623XXSP,2013-08-04 17:12:00,
2013-08-04 13:18:00,70.9,57.0,29.96,NNE,30,2.1,4.7,61,0.00,,,0.11,WUHU21623XXSP,2013-08-04 17:18:00,
2013-08-04 13:23:00,70.9,57.0,29.96,NW,315,1.8,4.7,61,0.00,,,0.11,WUHU21623XXSP,2013-08-04 17:23:00,
2013-08-04 13:28:00,71.2,56.8,29.96,North,0,0.0,4.7,60,0.00,,,0.11,WUHU21623XXSP,2013-08-04 17:28:00,
2013-08-04 13:32:00,71.4,56.5,29.96,North,352,0.9,4.7,59,0.00,,,0.11,WUHU21623XXSP,2013-08-04 17:32:00,
2013-08-04 13:38:00,72.3,56.9,29.96,NNW,337,1.1,5.1,58,0.00,,,0.11,WUHU21623XXSP,2013-08-04 17:38:00,
2013-08-04 13:43:00,72.9,56.9,29.96,ENE,67,1.1,5.6,57,0.00,,,0.11,WUHU21623XXSP,2013-08-04 17:43:00,
2013-08-04 13:47:00,73.8,58.3,29.97,NNW,337,1.5,5.6,58,0.00,,,0.11,WUHU21623XXSP,2013-08-04 17:47:00,
2013-08-04 13:53:00,73.2,56.2,29.96,NNE,24,3.1,7.4,55,0.00,,,0.11,WUHU21623XXSP,2013-08-04 17:53:00,
2013-08-04 13:58:00,72.7,55.7,29.97,NNE,22,2.9,7.4,55,0.00,,,0.11,WUHU21623XXSP,2013-08-04 17:58:00,
2013-08-04 14:03:00,73.0,56.5,29.97,NW,315,1.6,4.7,56,0.00,,,0.11,WUHU21623XXSP,2013-08-04 18:03:00,
2013-08-04 14:08:00,73.2,56.7,29.97,NNE,30,0.9,4.7,56,0.00,,,0.11,WUHU21623XXSP,2013-08-04 18:08:00,
2013-08-04 14:13:00,72.5,55.6,29.97,NNE,17,2.4,7.2,55,0.00,,,0.11,WUHU21623XXSP,2013-08-04 18:13:00,
2013-08-04 14:18:00,72.3,56.4,29.97,NNE,28,2.2,7.2,57,0.00,,,0.11,WUHU21623XXSP,2013-08-04 18:18:00,
2013-08-04 14:23:00,73.0,56.5,29.97,NNW,333,2.3,4.0,56,0.00,,,0.11,WUHU21623XXSP,2013-08-04 18:23:00,
2013-08-04 14:27:00,72.7,56.3,29.97,North,0,1.8,4.0,56,0.00,,,0.11,WUHU21623XXSP,2013-08-04 18:27:00,
2013-08-04 14:33:00,70.9,54.1,29.97,North,0,2.5,5.6,55,0.00,,,0.11,WUHU21623XXSP,2013-08-04 18:33:00,
2013-08-04 14:38:00,69.8,54.0,29.97,North,10,1.8,5.8,57,0.00,,,0.11,WUHU21623XXSP,2013-08-04 18:38:00,
2013-08-04 14:43:00,70.2,54.9,29.97,NNE,24,1.8,5.8,58,0.00,,,0.11,WUHU21623XXSP,2013-08-04 18:43:00,
2013-08-04 14:48:00,71.4,57.0,29.97,North,0,2.2,5.1,60,0.00,,,0.11,WUHU21623XXSP,2013-08-04 18:48:00,
2013-08-04 14:53:00,71.8,56.4,29.96,NE,45,0.0,5.1,58,0.00,,,0.11,WUHU21623XXSP,2013-08-04 18:53:00,
2013-08-04 14:58:00,72.3,57.4,29.96,NE,45,0.0,3.1,59,0.00,,,0.11,WUHU21623XXSP,2013-08-04 18:58:00,
2013-08-04 15:03:00,72.7,56.8,29.97,North,8,1.4,3.4,57,0.00,,,0.11,WUHU21623XXSP,2013-08-04 19:03:00,
2013-08-04 15:08:00,72.7,56.3,29.97,NNW,337,0.0,3.4,56,0.00,,,0.11,WUHU21623XXSP,2013-08-04 19:08:00,
2013-08-04 15:13:00,73.0,56.0,29.97,North,349,1.6,3.6,55,0.00,,,0.11,WUHU21623XXSP,2013-08-04 19:13:00,
2013-08-04 15:17:00,71.4,54.5,29.97,NNE,22,4.9,4.9,55,0.00,,,0.11,WUHU21623XXSP,2013-08-04 19:17:00,
2013-08-04 15:22:00,70.7,54.9,29.97,NE,45,5.1,5.4,57,0.00,,,0.11,WUHU21623XXSP,2013-08-04 19:22:00,
2013-08-04 15:28:00,70.0,54.2,29.97,North,10,1.5,5.4,57,0.00,,,0.11,WUHU21623XXSP,2013-08-04 19:28:00,
2013-08-04 15:33:00,69.1,53.9,29.97,NE,45,0.0,5.1,58,0.00,,,0.11,WUHU21623XXSP,2013-08-04 19:33:00,
2013-08-04 15:38:00,68.7,54.4,29.97,NE,55,2.3,8.7,60,0.00,,,0.11,WUHU21623XXSP,2013-08-04 19:38:00,
2013-08-04 15:43:00,68.9,54.6,29.97,NNE,22,1.1,8.7,60,0.00,,,0.11,WUHU21623XXSP,2013-08-04 19:43:00,
2013-08-04 15:48:00,68.5,53.8,29.97,NNE,22,1.3,8.1,59,0.00,,,0.11,WUHU21623XXSP,2013-08-04 19:48:00,
2013-08-04 15:53:00,68.5,53.8,29.97,NE,45,2.5,8.1,59,0.00,,,0.11,WUHU21623XXSP,2013-08-04 19:53:00,
2013-08-04 15:58:00,68.2,53.5,29.98,NNE,29,2.0,5.6,59,0.00,,,0.11,WUHU21623XXSP,2013-08-04 19:58:00,
2013-08-04 16:02:00,68.2,53.5,29.98,NNE,12,1.2,6.5,59,0.00,,,0.11,WUHU21623XXSP,2013-08-04 20:02:00,
2013-08-04 16:07:00,68.2,54.0,29.98,NNW,337,2.7,8.3,60,0.00,,,0.11,WUHU21623XXSP,2013-08-04 20:07:00,
2013-08-04 16:13:00,68.2,54.0,29.98,NNE,24,2.1,8.3,60,0.00,,,0.11,WUHU21623XXSP,2013-08-04 20:13:00,
2013-08-04 16:18:00,68.5,53.8,29.98,North,356,1.9,5.1,59,0.00,,,0.11,WUHU21623XXSP,2013-08-04 20:18:00,
2013-08-04 16:23:00,69.4,54.6,29.98,NW,315,3.6,3.6,59,0.00,,,0.11,WUHU21623XXSP,2013-08-04 20:23:00,
2013-08-04 16:28:00,69.1,53.9,29.98,NE,36,2.3,7.4,58,0.00,,,0.11,WUHU21623XXSP,2013-08-04 20:28:00,
2013-08-04 16:33:00,68.7,53.5,29.98,North,4,0.8,7.4,58,0.00,,,0.11,WUHU21623XXSP,2013-08-04 20:33:00,
2013-08-04 16:38:00,68.4,53.2,29.98,NNE,23,1.5,5.1,58,0.00,,,0.11,WUHU21623XXSP,2013-08-04 20:38:00,
2013-08-04 16:42:00,67.8,53.1,29.98,NNE,23,2.4,3.6,59,0.00,,,0.11,WUHU21623XXSP,2013-08-04 20:42:00,
2013-08-04 16:47:00,67.8,53.1,29.98,ENE,63,1.1,3.6,59,0.00,,,0.11,WUHU21623XXSP,2013-08-04 20:47:00,
2013-08-04 16:52:00,67.8,53.1,29.98,NE,45,2.5,3.4,59,0.00,,,0.11,WUHU21623XXSP,2013-08-04 20:52:00,
2013-08-04 16:57:00,67.8,53.1,29.98,East,90,2.2,5.8,59,0.00,,,0.11,WUHU21623XXSP,2013-08-04 20:57:00,
2013-08-04 17:02:00,67.6,52.9,29.98,North,0,0.0,7.6,59,0.00,,,0.11,WUHU21623XXSP,2013-08-04 21:02:00,
2013-08-04 17:07:00,67.5,52.8,29.98,East,79,1.9,7.6,59,0.00,,,0.11,WUHU21623XXSP,2013-08-04 21:07:00,
2013-08-04 17:12:00,67.3,52.6,29.98,SSE,156,2.3,5.1,59,0.00,,,0.11,WUHU21623XXSP,2013-08-04 21:12:00,
2013-08-04 17:17:00,66.9,52.7,29.98,NNE,22,0.0,5.1,60,0.00,,,0.11,WUHU21623XXSP,2013-08-04 21:17:00,
2013-08-04 17:22:00,66.6,52.4,29.98,North,2,0.8,3.6,60,0.00,,,0.11,WUHU21623XXSP,2013-08-04 21:22:00,
2013-08-04 17:27:00,67.1,53.4,29.98,NE,45,1.3,3.6,61,0.00,,,0.11,WUHU21623XXSP,2013-08-04 21:27:00,
2013-08-04 17:32:00,67.3,53.1,29.98,North,0,0.0,3.6,60,0.00,,,0.11,WUHU21623XXSP,2013-08-04 21:32:00,
2013-08-04 17:37:00,67.3,52.6,29.98,NE,47,2.2,5.1,59,0.00,,,0.11,WUHU21623XXSP,2013-08-04 21:37:00,
2013-08-04 17:42:00,67.3,53.1,29.98,NE,45,1.1,5.1,60,0.00,,,0.11,WUHU21623XXSP,2013-08-04 21:42:00,
2013-08-04 17:47:00,67.6,53.8,29.98,NNE,22,0.9,2.5,61,0.00,,,0.11,WUHU21623XXSP,2013-08-04 21:47:00,
2013-08-04 17:49:00,67.6,53.4,29.98,NE,36,1.9,3.8,60,0.00,,,0.11,WUHU21623XXSP,2013-08-04 21:49:00,
2013-08-04 17:54:00,67.3,53.1,29.98,NNW,347,1.3,7.6,60,0.00,,,0.11,WUHU21623XXSP,2013-08-04 21:54:00,
2013-08-04 17:59:00,66.9,52.7,29.98,North,7,1.7,7.6,60,0.00,,,0.11,WUHU21623XXSP,2013-08-04 21:59:00,
2013-08-04 18:04:00,66.7,52.5,29.98,NNE,22,0.8,3.4,60,0.00,,,0.11,WUHU21623XXSP,2013-08-04 22:04:00,
2013-08-04 18:09:00,66.4,52.3,29.98,NNE,22,1.8,3.6,60,0.00,,,0.11,WUHU21623XXSP,2013-08-04 22:09:00,
2013-08-04 18:14:00,65.8,52.1,29.98,North,353,2.1,3.8,61,0.00,,,0.11,WUHU21623XXSP,2013-08-04 22:14:00,
2013-08-04 18:19:00,65.5,52.3,29.98,NE,45,1.5,3.8,62,0.00,,,0.11,WUHU21623XXSP,2013-08-04 22:19:00,
2013-08-04 18:24:00,65.5,52.3,29.98,NNE,33,1.9,4.5,62,0.00,,,0.11,WUHU21623XXSP,2013-08-04 22:24:00,
2013-08-04 18:28:00,65.5,51.9,29.98,NNW,345,1.2,5.1,61,0.00,,,0.11,WUHU21623XXSP,2013-08-04 22:28:00,
2013-08-04 18:34:00,65.3,51.7,29.98,NE,45,0.0,5.1,61,0.00,,,0.11,WUHU21623XXSP,2013-08-04 22:34:00,
2013-08-04 18:39:00,65.1,51.9,29.98,NNE,22,0.6,1.3,62,0.00,,,0.11,WUHU21623XXSP,2013-08-04 22:39:00,
2013-08-04 18:44:00,64.9,51.7,29.98,NNE,22,0.0,5.6,62,0.00,,,0.11,WUHU21623XXSP,2013-08-04 22:44:00,
2013-08-04 18:49:00,64.8,51.6,29.98,NE,45,0.0,5.6,62,0.00,,,0.11,WUHU21623XXSP,2013-08-04 22:49:00,
2013-08-04 18:54:00,64.4,51.7,29.98,NE,45,0.0,3.4,63,0.00,,,0.11,WUHU21623XXSP,2013-08-04 22:54:00,
2013-08-04 18:58:00,64.2,51.5,29.98,North,3,1.2,2.2,63,0.00,,,0.11,WUHU21623XXSP,2013-08-04 22:58:00,
2013-08-04 19:04:00,64.2,51.1,29.98,NNE,12,2.7,6.0,62,0.00,,,0.11,WUHU21623XXSP,2013-08-04 23:04:00,
2013-08-04 19:08:00,64.2,51.1,29.98,NE,45,1.1,6.0,62,0.00,,,0.11,WUHU21623XXSP,2013-08-04 23:08:00,
2013-08-04 19:14:00,64.0,51.3,29.98,NNE,22,0.2,5.6,63,0.00,,,0.11,WUHU21623XXSP,2013-08-04 23:14:00,
2013-08-04 19:19:00,63.7,51.0,29.98,NE,45,1.6,1.8,63,0.00,,,0.11,WUHU21623XXSP,2013-08-04 23:19:00,
2013-08-04 19:24:00,63.5,51.3,29.98,NNE,32,2.7,4.7,64,0.00,,,0.11,WUHU21623XXSP,2013-08-04 23:24:00,
2013-08-04 19:29:00,63.5,51.3,29.98,NE,45,2.2,4.7,64,0.00,,,0.11,WUHU21623XXSP,2013-08-04 23:29:00,
2013-08-04 19:34:00,63.3,51.1,29.98,NE,36,1.4,4.0,64,0.00,,,0.11,WUHU21623XXSP,2013-08-04 23:34:00,
2013-08-04 19:38:00,63.1,50.9,29.98,NNE,22,0.0,4.0,64,0.00,,,0.11,WUHU21623XXSP,2013-08-04 23:38:00,
2013-08-04 19:43:00,62.8,50.6,29.98,NNE,22,0.4,3.6,64,0.00,,,0.11,WUHU21623XXSP,2013-08-04 23:43:00,
2013-08-04 19:48:00,62.6,50.8,29.98,NNE,22,0.0,3.6,65,0.00,,,0.11,WUHU21623XXSP,2013-08-04 23:48:00,
2013-08-04 19:54:00,62.4,50.6,29.99,NNE,22,0.0,0.0,65,0.00,,,0.11,WUHU21623XXSP,2013-08-04 23:54:00,
2013-08-04 19:59:00,62.2,50.9,29.99,NNE,33,1.0,1.6,66,0.00,,,0.11,WUHU21623XXSP,2013-08-04 23:59:00,
2013-08-04 20:04:00,61.9,50.6,29.98,NNE,22,0.6,1.6,66,0.00,,,0.11,WUHU21623XXSP,2013-08-05 00:04:00,
2013-08-04 20:09:00,61.7,50.8,29.98,NE,45,0.0,1.1,67,0.00,,,0.11,WUHU21623XXSP,2013-08-05 00:09:00,
2013-08-04 20:13:00,61.5,50.6,29.99,NE,45,0.0,1.1,67,0.00,,,0.11,WUHU21623XXSP,2013-08-05 00:13:00,
2013-08-04 20:19:00,61.2,50.3,29.99,NE,45,0.0,0.0,67,0.00,,,0.11,WUHU21623XXSP,2013-08-05 00:19:00,
2013-08-04 20:23:00,61.0,50.5,29.99,NNE,22,0.9,1.3,68,0.00,,,0.11,WUHU21623XXSP,2013-08-05 00:23:00,
2013-08-04 20:29:00,60.6,50.1,29.99,NE,45,0.4,1.3,68,0.00,,,0.11,WUHU21623XXSP,2013-08-05 00:29:00,
2013-08-04 20:34:00,60.4,50.3,29.99,NNE,22,0.0,1.1,69,0.00,,,0.11,WUHU21623XXSP,2013-08-05 00:34:00,
2013-08-04 20:39:00,60.1,50.0,29.99,NNE,22,0.0,0.9,69,0.00,,,0.11,WUHU21623XXSP,2013-08-05 00:39:00,
2013-08-04 20:44:00,60.1,50.4,29.99,NNE,22,1.3,1.3,70,0.00,,,0.11,WUHU21623XXSP,2013-08-05 00:44:00,
2013-08-04 20:48:00,59.9,50.2,30.00,NNE,22,0.4,2.7,70,0.00,,,0.11,WUHU21623XXSP,2013-08-05 00:48:00,
2013-08-04 20:53:00,59.7,50.0,30.00,NE,45,0.0,2.7,70,0.00,,,0.11,WUHU21623XXSP,2013-08-05 00:53:00,
2013-08-04 20:59:00,59.5,49.8,30.00,NE,45,0.0,1.3,70,0.00,,,0.11,WUHU21623XXSP,2013-08-05 00:59:00,
2013-08-04 21:04:00,59.4,50.1,30.01,NE,45,0.0,0.0,71,0.00,,,0.11,WUHU21623XXSP,2013-08-05 01:04:00,
2013-08-04 21:09:00,59.0,50.1,30.01,NNE,22,0.0,0.0,72,0.00,,,0.11,WUHU21623XXSP,2013-08-05 01:09:00,
2013-08-04 21:13:00,58.8,49.9,30.01,NE,45,0.0,0.9,72,0.00,,,0.11,WUHU21623XXSP,2013-08-05 01:13:00,
2013-08-04 21:19:00,58.6,49.7,30.01,NE,45,1.1,1.1,72,0.00,,,0.11,WUHU21623XXSP,2013-08-05 01:19:00,
2013-08-04 21:24:00,58.6,50.1,30.01,NE,45,0.7,2.0,73,0.00,,,0.11,WUHU21623XXSP,2013-08-05 01:24:00,
2013-08-04 21:29:00,58.5,50.0,30.01,NE,45,1.0,2.0,73,0.00,,,0.11,WUHU21623XXSP,2013-08-05 01:29:00,
2013-08-04 21:34:00,58.3,49.8,30.01,NNE,22,0.0,1.3,73,0.00,,,0.11,WUHU21623XXSP,2013-08-05 01:34:00,
2013-08-04 21:39:00,58.3,49.8,30.01,NE,45,0.0,0.7,73,0.00,,,0.11,WUHU21623XXSP,2013-08-05 01:39:00,
2013-08-04 21:44:00,58.3,49.8,30.01,NE,45,0.0,0.7,73,0.00,,,0.11,WUHU21623XXSP,2013-08-05 01:44:00,
2013-08-04 21:48:00,58.3,50.2,30.01,NE,45,1.1,1.3,74,0.00,,,0.11,WUHU21623XXSP,2013-08-05 01:48:00,
2013-08-04 21:54:00,58.3,50.2,30.01,NE,45,0.0,1.3,74,0.00,,,0.11,WUHU21623XXSP,2013-08-05 01:54:00,
2013-08-04 21:59:00,58.1,50.0,30.01,NNE,22,0.0,2.7,74,0.00,,,0.11,WUHU21623XXSP,2013-08-05 01:59:00,
2013-08-04 22:04:00,58.1,50.0,30.01,NE,45,0.0,2.7,74,0.00,,,0.11,WUHU21623XXSP,2013-08-05 02:04:00,
2013-08-04 22:09:00,58.3,50.2,30.01,North,0,0.0,3.1,74,0.00,,,0.11,WUHU21623XXSP,2013-08-05 02:09:00,
2013-08-04 22:14:00,58.3,50.2,30.01,NE,45,0.0,3.1,74,0.00,,,0.11,WUHU21623XXSP,2013-08-05 02:14:00,
2013-08-04 22:19:00,58.3,50.2,30.01,NNE,22,0.0,1.6,74,0.00,,,0.11,WUHU21623XXSP,2013-08-05 02:19:00,
2013-08-04 22:24:00,58.3,50.2,30.01,NE,45,0.0,1.6,74,0.00,,,0.11,WUHU21623XXSP,2013-08-05 02:24:00,
2013-08-04 22:29:00,58.3,50.2,30.01,NE,45,0.0,1.6,74,0.00,,,0.11,WUHU21623XXSP,2013-08-05 02:29:00,
2013-08-04 22:34:00,58.1,50.0,30.01,NE,45,0.0,1.6,74,0.00,,,0.11,WUHU21623XXSP,2013-08-05 02:34:00,
2013-08-04 22:39:00,57.9,49.8,30.01,NE,45,0.0,0.0,74,0.00,,,0.11,WUHU21623XXSP,2013-08-05 02:39:00,
2013-08-04 22:44:00,57.7,49.9,30.01,NE,45,0.0,0.0,75,0.00,,,0.11,WUHU21623XXSP,2013-08-05 02:44:00,
2013-08-04 22:49:00,57.6,49.8,30.01,NE,45,0.0,0.0,75,0.00,,,0.11,WUHU21623XXSP,2013-08-05 02:49:00,
2013-08-04 22:54:00,57.4,49.6,30.01,NE,42,0.7,1.8,75,0.00,,,0.11,WUHU21623XXSP,2013-08-05 02:54:00,
2013-08-04 22:59:00,57.6,49.8,30.01,NNE,22,0.7,4.3,75,0.00,,,0.11,WUHU21623XXSP,2013-08-05 02:59:00,
2013-08-04 23:04:00,57.7,49.9,30.01,NNE,22,0.9,4.3,75,0.00,,,0.11,WUHU21623XXSP,2013-08-05 03:04:00,
2013-08-04 23:09:00,57.7,49.9,30.01,NE,45,0.0,1.1,75,0.00,,,0.11,WUHU21623XXSP,2013-08-05 03:09:00,
2013-08-04 23:14:00,57.7,49.9,30.01,NE,45,0.0,1.1,75,0.00,,,0.11,WUHU21623XXSP,2013-08-05 03:14:00,
2013-08-04 23:19:00,57.7,49.9,30.01,NE,45,0.0,0.7,75,0.00,,,0.11,WUHU21623XXSP,2013-08-05 03:19:00,
2013-08-04 23:24:00,57.6,49.8,30.01,NE,45,0.0,0.0,75,0.00,,,0.11,WUHU21623XXSP,2013-08-05 03:24:00,
2013-08-04 23:29:00,57.4,49.6,30.01,NNE,22,0.0,0.0,75,0.00,,,0.11,WUHU21623XXSP,2013-08-05 03:29:00,
2013-08-04 23:34:00,57.2,49.4,30.01,NE,38,0.6,1.3,75,0.00,,,0.11,WUHU21623XXSP,2013-08-05 03:34:00,
2013-08-04 23:39:00,57.2,49.4,30.01,NNE,22,0.0,1.3,75,0.00,,,0.11,WUHU21623XXSP,2013-08-05 03:39:00,
2013-08-04 23:44:00,57.4,49.3,30.01,NNE,22,0.7,1.1,74,0.00,,,0.11,WUHU21623XXSP,2013-08-05 03:44:00,
2013-08-04 23:49:00,57.4,49.3,30.01,NNE,22,0.7,1.1,74,0.00,,,0.11,WUHU21623XXSP,2013-08-05 03:49:00,
2013-08-04 23:54:00,57.4,49.3,30.01,NNE,22,0.0,2.0,74,0.00,,,0.11,WUHU21623XXSP,2013-08-05 03:54:00,
2013-08-04 23:59:00,57.2,49.1,30.01,NNE,29,0.9,2.0,74,0.00,,,0.11,WUHU21623XXSP,2013-08-05 03:59:00,